CDT,Max TemperatureF,Mean TemperatureF,Min TemperatureF,Max Dew PointF,MeanDew PointF,Min DewpointF,Max Humidity, Mean Humidity, Min Humidity, Max Sea Level PressureIn, Mean Sea Level PressureIn, Min Sea Level PressureIn, Max VisibilityMiles, Mean VisibilityMiles, Min VisibilityMiles, Max Wind SpeedMPH, Mean Wind SpeedMPH, Max Gust SpeedMPH,PrecipitationIn, CloudCover, Events, WindDirDegrees
2013-6-1,77,64,52,61,55,50,94,73,50,29.78,29.66,29.62,10,10,10,17,10,31,0.00,5,,246
2013-6-2,63,52,41,48,41,38,100,73,45,30.06,29.97,29.79,10,9,1,18,12,28,0.00,5,,330
2013-6-3,72,52,35,52,40,36,100,85,35,30.11,30.05,30.02,10,6,1,9,1,,0.00,1,,130
2013-6-4,55,52,50,55,53,50,100,96,88,30.19,30.14,30.08,10,9,5,14,4,,0.65,7,Rain,93
2013-6-5,58,54,50,57,53,50,100,97,94,30.15,30.04,29.96,10,8,3,13,7,,0.05,7,Rain,103
2013-6-6,56,54,51,55,53,51,100,97,92,30.00,29.96,29.93,10,9,2,9,6,,0.00,8,,89
2013-6-7,72,60,49,57,52,48,100,77,46,30.04,29.98,29.94,10,10,4,12,3,,0.00,6,,336
2013-6-8,68,60,53,58,54,51,100,93,62,30.00,29.95,29.93,10,8,0,9,2,,0.04,4,Fog,100
2013-6-9,75,64,53,66,60,52,100,94,57,30.00,29.89,29.82,10,7,1,18,6,24,0.71,4,Rain,87
2013-6-10,77,65,53,68,60,54,100,95,61,29.88,29.83,29.79,10,4,0,10,3,,0.01,3,Fog,11
2013-6-11,80,64,50,72,57,50,100,95,65,29.91,29.87,29.79,10,5,0,8,1,,0.00,2,Fog-Rain-Thunderstorm,127
2013-6-12,76,68,58,70,66,58,100,97,78,29.92,29.82,29.70,10,8,2,22,5,29,0.03,5,Rain-Thunderstorm,78
2013-6-13,77,64,51,61,56,52,100,80,50,30.09,30.00,29.83,10,10,4,14,6,20,0.00,1,Rain,331
2013-6-14,77,61,45,60,52,46,100,87,44,30.17,30.09,29.97,10,6,0,12,1,,0.00,1,Fog,121
2013-6-15,79,68,58,69,63,58,100,92,68,30.05,29.94,29.80,10,8,2,16,7,20,0.58,5,Rain-Thunderstorm,150
2013-6-16,82,66,50,68,56,50,100,90,37,29.91,29.88,29.87,10,4,0,14,2,24,0.00,0,Fog,272
2013-6-17,82,68,55,63,57,54,94,69,37,30.00,29.92,29.88,10,10,10,18,6,25,0.00,3,Thunderstorm,337
2013-6-18,73,63,50,60,52,45,100,72,41,30.12,30.07,30.00,10,10,3,12,6,,0.00,3,,81
2013-6-19,78,60,42,59,51,43,100,72,44,30.16,30.10,30.04,10,9,4,8,4,,0.00,2,,137
2013-6-20,85,70,55,63,58,54,100,64,37,30.12,30.07,30.02,10,9,4,13,7,20,0.00,3,,147
2013-6-21,77,70,64,68,65,61,100,88,69,30.06,29.99,29.89,10,8,2,17,6,29,0.11,5,Rain-Thunderstorm,105
2013-6-22,81,72,64,70,67,63,100,96,66,30.11,29.99,29.91,10,8,1,24,8,37,1.00,5,Rain-Thunderstorm,123
2013-6-23,82,73,64,72,65,63,100,87,57,30.00,29.93,29.83,10,10,6,20,10,29,0.45,4,Rain-Thunderstorm,184
2013-6-24,79,72,66,70,67,64,94,81,73,29.99,29.92,29.85,10,10,10,12,6,21,0.00,6,Rain,191
2013-6-25,80,72,64,73,67,64,100,96,74,29.91,29.87,29.78,10,9,2,8,4,,0.31,6,Rain-Thunderstorm,150
2013-6-26,85,77,68,73,70,68,100,95,58,29.78,29.75,29.72,10,4,0,9,4,,0.02,4,Fog-Rain,122
2013-6-27,86,74,62,73,66,56,100,89,45,29.82,29.78,29.72,10,5,0,22,5,26,0.00,1,Fog,281
2013-6-28,75,66,57,68,64,54,100,89,65,29.76,29.69,29.66,10,8,0,18,9,23,0.77,4,Fog-Rain-Thunderstorm,308
2013-6-29,71,64,58,64,61,56,100,90,68,29.91,29.76,29.69,10,10,7,15,6,24,0.01,6,Rain,352
2013-6-30,77,63,49,61,53,48,100,70,36,30.09,30.02,29.93,10,10,8,13,6,20,0.00,2,,343